User: anonymous   Login
Location: Unspecified
(0.0000°N, 0.0000°E)
Time: 12:44:10
(UTC+02:00)
Language:

Cosmos 1980 Rocket - Orbit

View from above orbital plane
View from above orbital plane
View from above satellite
View from above satellite

Ground track
Ground track

The orbit data is extracted from the following two-line orbital elements,

1 19650U 88102B   17142.85579661 -.00000272 +00000-0 -11421-3 0  9997
2 19650 071.0005 068.3614 0015969 227.5652 132.4122 14.15757774472133
Epoch (UTC): 22 May 2017 20:32:20
Eccentricity: 0.0015969
inclination: 71.0005°
perigee height: 828 km
apogee height: 851 km
right ascension of ascending node: 68.3614°
argument of perigee: 227.5652°
revolutions per day: 14.15757774
mean anomaly at epoch: 132.4122°
orbit number at epoch: 47213

The dashed part of the orbit path shows where the satellite is in the earth's shadow,  

DLR